This is the latest recevied weather packets stored in our database for station/object OK2ZAW-23. If no packets are shown the sender has not sent any weather packets the latest 10 day(s).
| Time | Temp. | Humidity | Pressure | Rain* | Wind** | Luminosity | Snow |
|---|---|---|---|---|---|---|---|
| 1777590370 | 2.78° C | 56% | 1026 hPa | - | - | 335 W/m² | - |
| 1777589120 | 3.89° C | 56% | 1025.8 hPa | - | - | 335 W/m² | - |
| 1777588493 | 3.89° C | 55% | 1025.9 hPa | - | - | 335 W/m² | - |
| 1777588181 | 4.44° C | 55% | 1025.9 hPa | - | - | 335 W/m² | - |
| 1777587242 | 4.44° C | 57% | 1025.9 hPa | - | - | 335 W/m² | - |
| 1777586616 | 4.44° C | 54% | 1025.9 hPa | - | - | 335 W/m² | - |
| 1777586303 | 5° C | 55% | 1025.9 hPa | - | - | 335 W/m² | - |
| 1777585991 | 5° C | 56% | 1025.9 hPa | - | - | 335 W/m² | - |
| 1777584113 | 4.44° C | 51% | 1025.9 hPa | - | - | 335 W/m² | - |
| 1777583174 | 5° C | 50% | 1025.9 hPa | - | - | 335 W/m² | - |
| 1777582861 | 5° C | 50% | 1025.9 hPa | - | - | 335 W/m² | - |
| 1777582236 | 5° C | 50% | 1026 hPa | - | - | 335 W/m² | - |
| 1777581610 | 5° C | 53% | 1026 hPa | - | - | 335 W/m² | - |
| 1777581297 | 5.56° C | 47% | 1026.1 hPa | - | - | 335 W/m² | - |
| 1777580985 | 5.56° C | 47% | 1026 hPa | - | - | 335 W/m² | - |
| 1777580671 | 5.56° C | 47% | 1026 hPa | - | - | 335 W/m² | - |
| 1777580358 | 5.56° C | 47% | 1026 hPa | - | - | 335 W/m² | - |
| 1777579419 | 6.11° C | 49% | 1025.9 hPa | - | - | 335 W/m² | - |
| 1777579106 | 6.11° C | 48% | 1026 hPa | - | - | 335 W/m² | - |
| 1777578480 | 6.67° C | 47% | 1025.8 hPa | - | - | 335 W/m² | - |
| 1777578167 | 6.67° C | 44% | 1025.8 hPa | - | - | 335 W/m² | - |
| 1777577854 | 7.22° C | 44% | 1025.7 hPa | - | - | 335 W/m² | - |
| 1777577227 | 7.22° C | 43% | 1025.5 hPa | - | - | 335 W/m² | - |
| 1777576915 | 7.78° C | 41% | 1025.5 hPa | - | - | 335 W/m² | - |
| 1777575975 | 8.33° C | 43% | 1025.3 hPa | - | - | 335 W/m² | - |
* Rain since midnight (hover to see other rain measurements)
** Current wind speed in m/s (hover to see current wind gust speed)